Wind_Speed
14 14 13 11 8 7 7 7 7 7 8 8 9 10 11 12 12 13 13 13 13 14 16 17 18 19 20 20 19 19 20 20 20 19 18 17 16 16 15 14 12 12 12 12 11 12 12 12 12 13 14 16 16 15 15 14 13 12 11 8 6 5 5 6 5 6 11 17 22
15 14 13 11 9 8 8 8 8 8 9 9 10 11 11 11 12 12 12 13 13 14 15 17 18 19 19 18 18 18 19 21 21 20 18 17 16 15 15 14 12 11 11 11 11 11 12 12 12 12 13 15 15 15 15 15 14 13 12 11 9 7 5 6 6 5 4 6 11
16 15 13 11 10 9 9 9 9 10 10 10 10 11 11 11 11 11 12 12 14 14 15 16 17 17 17 17 17 17 19 20 21 20 19 18 16 15 15 14 12 10 9 9 9 10 10 11 11 11 12 13 13 14 15 15 14 13 12 11 11 10 7 3 3 4 5 5 3
16 15 14 12 10 10 10 10 11 11 11 10 10 10 10 11 11 11 12 13 14 14 15 16 17 17 16 16 16 17 19 20 21 21 20 18 17 15 14 14 12 10 9 8 7 8 8 9 9 10 10 11 11 12 13 13 13 12 12 11 10 10 9 7 3 1 3 5 4
18 17 15 13 12 11 11 11 11 10 10 10 10 10 11 11 12 12 13 13 14 15 15 16 16 16 16 15 16 18 20 21 21 20 20 18 17 15 14 13 12 11 9 7 7 7 7 7 7 8 8 8 9 9 10 11 12 11 11 10 9 9 9 9 6 3 1 3 4
19 18 17 15 13 12 11 10 9 9 9 10 11 11 11 11 12 12 13 14 15 16 16 16 16 16 16 16 17 18 20 21 21 21 20 18 17 15 14 13 12 10 9 8 7 6 6 6 6 6 6 6 6 7 8 9 10 10 9 8 8 8 9 8 8 6 3 1 3
19 19 17 15 13 11 10 9 8 9 9 11 12 12 13 13 13 14 15 16 16 17 17 16 16 16 16 16 18 19 20 21 21 21 20 18 16 14 13 12 11 10 9 8 7 6 6 6 6 6 5 5 5 6 6 7 8 8 8 7 7 8 8 8 7 6 4 2 1
19 19 17 15 13 11 10 9 9 9 11 11 12 13 13 14 15 15 16 16 16 16 17 17 17 17 17 17 19 20 21 21 21 21 20 18 16 14 12 11 11 10 9 8 7 6 6 5 5 5 5 5 5 5 5 6 6 6 6 5 6 6 7 7 6 5 4 4 3
19 18 17 14 12 11 10 9 9 10 11 12 12 13 13 14 14 15 15 16 16 16 17 18 18 18 18 18 19 20 21 22 22 21 20 18 16 14 12 11 11 10 9 8 7 6 6 6 5 5 5 4 4 4 4 4 4 4 4 4 4 4 5 5 5 5 5 5 4
20 19 16 13 11 10 9 9 10 10 11 12 12 13 13 13 14 15 15 15 16 17 17 18 18 18 18 19 20 21 22 22 22 22 20 19 17 15 14 12 12 10 9 8 7 7 7 6 5 4 3 3 3 3 4 4 3 3 3 3 3 2 2 2 4 5 5 5 5
20 19 16 13 11 9 9 9 10 11 11 12 13 14 14 14 14 15 15 15 16 17 17 17 17 17 17 19 20 21 22 23 23 22 21 19 18 16 15 14 13 11 9 8 8 8 8 7 5 3 2 2 2 3 3 3 2 2 3 4 4 4 2 0 2 4 5 5 5
20 18 15 12 10 9 9 10 11 11 12 13 14 14 15 15 15 15 15 16 16 17 17 17 17 16 17 18 19 21 22 23 23 22 20 19 18 16 15 14 13 12 10 8 8 8 9 8 6 3 1 1 1 2 3 2 1 2 3 4 4 4 4 2 2 3 3 4 4
19 18 15 12 10 9 9 10 11 12 13 14 15 15 15 16 16 16 16 16 17 17 18 18 17 16 16 17 18 20 21 22 22 21 19 18 17 16 15 14 13 12 11 9 8 9 9 9 7 4 2 2 2 3 3 2 1 2 2 2 2 2 2 3 4 4 2 1 2
19 17 14 12 10 9 9 10 11 12 13 14 15 16 16 17 17 17 17 17 17 18 18 18 17 16 15 16 17 19 20 20 20 19 18 17 16 15 14 14 13 12 11 10 9 9 10 9 7 5 3 4 5 5 4 3 2 1 1 0 1 1 2 3 4 5 4 3 1
18 16 14 12 10 10 10 10 11 12 13 15 16 16 17 18 18 18 17 17 17 17 17 17 17 16 16 16 17 18 18 19 19 18 18 16 15 14 13 13 12 12 11 11 11 11 10 10 8 5 4 5 6 6 5 4 3 2 1 1 2 2 3 3 4 5 5 4 3
18 15 13 12 11 10 10 11 11 12 13 15 16 17 18 19 19 18 17 16 16 17 17 17 17 17 17 17 17 16 17 18 18 18 17 16 15 14 13 12 12 12 12 12 12 11 11 11 9 7 5 6 7 6 6 5 4 3 2 2 2 2 3 3 4 5 5 5 4
17 14 12 11 11 11 11 11 11 12 13 15 17 18 19 19 19 18 17 16 16 16 17 17 17 17 18 17 17 16 16 17 18 18 18 16 15 14 13 12 12 12 12 12 12 12 12 11 11 9 7 7 7 7 6 5 4 4 3 3 3 3 4 5 5 6 6 6 5
15 13 11 10 11 11 12 12 12 12 14 16 18 19 19 18 18 17 17 16 16 16 17 17 17 17 17 17 17 17 16 16 18 18 18 17 15 14 13 13 12 12 13 12 12 12 12 12 11 10 9 9 9 7 6 5 5 4 4 4 4 4 5 6 6 7 7 7 7
14 11 10 10 11 12 12 12 12 13 15 17 18 19 19 18 17 17 17 16 16 16 16 17 17 16 16 16 16 16 16 16 17 18 18 17 16 14 13 13 12 12 12 12 12 12 12 12 12 11 10 10 10 9 7 6 5 5 5 5 5 5 5 6 7 7 8 9 9
13 11 10 10 11 12 12 12 13 14 16 18 18 19 18 17 16 16 16 16 16 15 15 16 16 16 15 15 15 15 16 17 17 17 18 17 16 14 13 12 12 12 12 12 11 11 11 11 11 11 11 11 11 10 8 7 6 6 6 6 6 6 6 7 7 7 8 9 10
13 11 11 11 11 12 12 12 13 15 17 18 18 18 17 16 16 15 16 15 15 14 14 14 15 15 15 14 14 14 15 16 17 17 17 17 15 14 13 12 12 12 12 12 11 11 10 10 11 11 11 11 11 10 9 8 8 7 7 7 8 8 8 7 7 7 7 8 10
13 12 11 11 12 12 12 13 14 15 17 18 18 17 16 16 15 15 14 14 14 14 14 14 14 14 14 14 13 13 14 16 17 16 16 15 14 13 12 12 12 12 12 12 11 10 10 10 10 10 11 11 10 9 9 8 9 9 8 9 9 9 9 9 8 8 8 8 9
14 13 12 12 12 12 12 13 14 16 17 17 17 16 16 15 14 14 14 14 13 13 13 13 13 13 13 13 12 12 13 15 16 16 15 13 12 12 11 11 11 12 12 11 11 10 10 10 10 10 10 9 9 8 8 8 9 9 9 9 10 10 10 10 10 9 9 9 9
14 13 13 14 13 13 12 13 14 15 16 17 17 16 15 14 14 14 13 13 13 13 13 13 13 13 12 12 12 11 12 13 15 15 13 11 10 11 11 11 11 11 11 10 10 10 10 10 10 9 9 8 7 7 7 8 8 9 9 10 10 10 10 11 11 11 11 11 10
13 14 14 15 14 14 13 13 14 15 16 16 16 15 15 14 14 13 13 14 14 14 13 13 13 13 12 12 11 11 11 12 14 14 11 9 9 9 11 11 11 11 10 9 9 9 9 9 9 8 8 7 7 7 7 8 8 8 9 9 10 10 10 11 11 12 12 12 12
13 14 15 15 15 14 14 14 14 15 15 15 15 15 14 14 13 13 14 14 14 14 14 14 14 13 12 12 11 10 10 10 11 10 9 8 8 9 10 11 11 10 9 8 7 7 7 7 7 7 6 6 6 7 8 8 8 8 9 9 9 10 11 11 11 11 12 13 13
14 14 15 15 15 14 14 14 14 14 14 14 14 14 13 13 13 14 14 14 15 15 14 14 14 13 13 12 11 11 10 9 8 7 6 6 7 9 10 11 10 9 7 6 5 6 6 6 6 5 5 5 6 7 8 8 8 8 8 9 9 9 10 11 11 11 11 12 12
14 14 15 15 15 14 13 13 13 13 13 14 14 13 12 13 14 14 14 14 14 14 14 14 14 13 13 13 12 12 10 9 7 6 5 5 6 8 10 10 9 7 5 5 5 5 5 4 5 5 5 5 6 7 8 8 8 8 8 8 9 9 9 9 10 10 10 11 11
15 15 15 15 14 14 13 13 12 12 13 13 13 12 12 12 13 14 14 14 14 14 14 14 14 13 13 13 13 13 11 9 7 5 5 5 7 8 9 9 8 5 5 6 6 6 5 4 4 5 6 6 7 7 8 8 8 8 8 8 8 8 8 8 8 9 9 9 9
16 15 15 15 14 14 13 12 12 12 13 13 13 12 12 12 13 14 14 14 13 13 13 13 13 13 13 13 13 13 12 10 7 6 6 7 7 8 8 7 6 5 7 8 7 6 5 4 4 5 6 6 7 8 8 8 8 8 9 8 8 7 7 7 7 7 7 7 7
16 15 15 15 14 14 13 12 12 12 12 13 12 11 11 12 13 14 13 13 13 13 13 13 12 12 12 12 12 11 11 10 8 7 7 7 7 6 6 5 5 7 8 9 8 7 6 5 5 5 5 6 7 7 7 7 7 8 8 8 7 7 6 6 6 6 6 5 6
16 16 15 14 14 14 13 12 12 12 12 12 11 11 11 12 13 13 13 13 12 12 12 12 11 11 10 10 10 9 8 8 8 7 7 6 5 4 4 5 7 9 9 9 9 7 6 5 5 5 5 6 7 7 7 7 7 7 7 7 6 6 6 6 6 6 6 6 6
16 15 14 14 14 14 13 13 12 12 12 12 11 10 10 11 12 13 12 12 11 11 11 10 10 9 9 9 8 7 5 5 5 5 5 4 3 3 4 6 8 10 10 10 9 8 6 5 5 5 5 6 6 6 6 6 6 6 6 6 6 6 6 7 7 7 7 7 7
16 15 14 14 14 14 14 13 12 12 12 11 10 9 9 10 12 12 12 11 10 10 10 9 8 8 7 7 7 6 5 3 2 1 1 1 3 5 7 9 10 11 10 10 9 8 7 5 5 5 5 6 6 6 6 6 6 6 6 6 6 7 7 8 8 8 7 7 7
14 14 14 14 14 14 14 13 12 12 11 11 11 9 9 10 11 12 11 10 10 9 9 8 7 7 6 5 5 5 6 7 6 6 6 7 8 10 11 12 12 11 11 10 10 8 7 6 5 5 6 6 7 7 7 7 7 7 7 7 7 7 8 8 9 8 8 7 7
13 13 13 14 14 13 13 12 11 11 11 11 11 10 9 10 10 11 11 10 9 8 8 7 6 5 4 3 3 6 8 10 10 11 11 12 13 14 14 13 12 12 11 10 9 8 6 5 4 4 5 6 7 7 8 8 8 7 8 8 8 8 9 9 9 9 9 8 7
13 12 12 12 12 12 12 11 11 11 11 11 10 10 10 10 10 10 10 9 8 7 7 6 5 3 3 4 5 7 9 11 12 13 14 14 15 15 14 14 13 12 10 9 8 6 5 5 4 3 3 5 6 7 7 8 8 8 9 10 10 10 10 10 10 10 9 9 8
12 11 11 11 11 11 11 11 10 11 11 10 10 10 9 10 10 10 9 9 7 7 6 5 3 3 3 4 5 7 8 10 12 13 14 14 14 13 13 13 12 10 8 7 6 5 5 5 5 4 3 4 5 5 6 8 9 9 10 11 12 12 11 11 11 11 10 10 9
11 10 10 10 11 11 11 11 11 10 10 10 10 10 10 10 10 10 9 8 7 6 5 4 2 2 3 4 4 5 6 8 9 11 12 12 12 11 11 11 10 9 7 6 5 5 5 6 5 3 2 3 3 4 5 7 9 10 11 12 13 13 12 11 11 11 11 11 10
11 10 10 11 11 11 11 11 11 10 10 10 10 10 10 10 10 9 9 8 7 6 5 3 1 1 2 3 4 4 5 6 7 8 9 10 10 10 10 10 9 8 6 5 5 6 6 6 4 3 2 3 3 3 4 6 9 11 12 12 13 13 13 11 11 11 11 11 10
11 11 11 11 11 11 11 11 11 10 10 10 10 10 10 10 9 9 9 8 7 6 4 2 1 1 2 3 3 4 5 5 6 6 6 7 8 8 9 9 9 8 6 6 6 6 7 5 4 2 2 3 3 3 4 6 9 11 12 12 12 12 12 12 11 11 11 11 11
Wind_Direction
316 318 318 316 306 293 285 285 285 287 290 294 298 301 305 308 310 311 312 313 312 312 312 313 315 318 322 327 329 328 325 323 321 317 312 311 314 320 327 335 341 345 347 347 349 350 350 349 350 355 0 3 4 3 3 3 4 4 5 5 357 329 306 297 277 233 213 211 213
312 314 314 312 301 289 281 280 279 279 282 287 293 299 304 306 305 306 307 308 309 309 309 310 313 317 322 324 325 326 325 324 322 317 312 308 308 313 321 327 333 339 342 343 343 345 347 347 347 351 357 1 1 360 359 360 359 360 0 360 357 343 310 281 282 286 265 216 203
309 312 311 307 299 289 281 280 280 281 285 290 297 302 303 302 301 300 301 303 305 307 308 310 315 319 320 321 322 325 326 326 323 318 312 307 304 307 314 321 325 331 337 341 339 338 340 343 344 347 352 356 356 355 355 355 354 353 353 353 352 347 339 313 271 271 279 272 223
307 308 307 303 296 287 281 278 280 284 290 296 302 303 299 297 296 296 298 300 303 305 307 311 315 318 318 318 320 324 327 327 325 320 312 306 301 302 308 315 319 323 330 336 335 331 331 335 338 341 345 350 350 349 348 347 346 346 345 344 344 343 343 343 341 261 247 262 265
305 306 305 300 294 287 283 281 282 287 294 300 299 296 294 293 293 294 296 298 299 302 307 312 315 316 317 317 319 322 324 326 324 321 315 306 299 297 300 308 313 317 322 326 327 325 323 324 328 333 337 340 340 340 339 338 337 337 337 337 337 339 342 348 354 359 244 233 246
304 306 306 302 297 291 287 284 286 290 296 296 293 290 289 291 292 293 294 296 300 305 310 313 314 315 316 317 317 318 319 321 323 323 320 311 301 294 295 301 306 310 314 318 320 319 317 317 318 321 325 328 329 328 328 328 328 328 328 330 334 338 343 347 355 3 6 240 220
305 306 305 303 298 292 286 285 288 292 293 291 289 289 290 292 294 296 298 301 305 308 311 312 312 312 314 315 315 315 315 317 321 325 324 318 307 297 293 296 301 305 307 311 314 314 310 310 308 309 311 314 315 316 317 318 319 319 321 323 329 337 343 347 352 1 10 17 60
306 306 305 301 296 289 285 286 290 291 290 289 290 292 295 298 299 302 304 306 307 309 311 311 311 312 314 315 313 312 313 316 321 325 326 323 315 303 294 293 298 300 300 301 304 304 301 301 298 295 297 303 306 307 306 308 309 311 312 314 321 330 340 349 358 7 15 20 35
307 306 303 297 289 285 285 288 291 292 292 293 294 297 301 302 304 304 305 306 308 311 312 311 311 313 314 313 310 309 312 316 321 324 326 325 319 310 300 297 299 299 295 291 292 291 290 291 292 288 286 290 299 301 299 297 300 300 298 295 305 318 332 348 4 15 22 26 40
308 307 301 291 282 278 281 287 291 294 296 298 301 304 306 305 305 306 308 308 310 310 309 309 310 310 309 308 307 308 311 316 320 323 324 324 321 315 309 304 303 299 293 284 283 280 278 279 288 292 290 292 296 294 289 282 287 289 282 268 262 272 301 343 12 21 25 28 39
309 307 299 288 277 272 277 286 292 296 300 303 306 309 310 310 310 312 312 310 308 306 305 306 306 305 305 304 305 307 311 315 318 320 322 322 321 318 313 308 305 300 291 282 278 274 270 269 278 293 311 310 300 285 273 264 275 288 278 256 233 221 216 192 42 32 27 23 29
309 305 297 284 274 271 277 287 294 299 303 306 309 312 313 315 316 315 312 308 304 303 304 306 306 304 302 302 304 306 309 312 315 318 319 320 320 318 314 309 305 298 290 282 277 272 267 262 264 275 307 319 285 263 249 241 264 284 275 255 231 215 198 164 116 76 41 21 15
308 302 293 279 271 271 278 287 294 299 303 306 310 313 315 316 317 314 311 307 305 305 307 309 308 304 301 301 303 305 308 311 313 316 317 318 318 317 314 310 304 298 291 283 278 273 267 260 257 256 248 226 225 224 220 221 253 279 274 256 230 209 182 150 130 119 104 57 359
307 300 289 275 268 271 279 287 293 297 302 307 311 314 315 315 315 314 311 309 307 307 309 310 309 305 302 300 301 304 306 309 312 314 316 317 316 315 313 310 306 300 294 286 280 274 267 259 253 247 235 224 215 206 199 205 226 249 265 34 74 87 109 123 130 132 133 140 185
305 298 285 272 266 270 279 287 293 298 304 308 312 314 314 313 313 313 312 310 309 309 310 309 307 305 303 300 300 302 305 308 310 313 316 317 315 314 313 313 310 305 299 292 284 274 265 255 247 238 229 224 213 201 192 194 205 210 186 98 80 78 84 102 120 129 134 144 173
304 296 283 270 266 271 279 286 292 299 305 309 311 312 311 310 311 312 311 309 308 309 308 306 305 304 303 301 300 302 304 306 309 312 316 317 316 314 314 316 315 310 303 296 287 275 261 249 239 229 221 217 207 195 185 186 191 192 175 149 129 117 111 114 120 123 128 140 164
301 294 282 272 270 274 280 285 291 298 304 307 308 308 308 308 309 310 309 306 306 305 304 304 304 303 302 300 300 301 303 305 307 310 314 317 317 316 317 320 317 311 303 296 286 273 258 245 232 222 214 210 202 190 176 173 177 181 181 177 166 151 139 133 129 127 129 136 151
297 291 281 274 274 277 282 286 293 299 303 305 306 306 307 307 307 308 308 306 305 303 303 304 304 303 301 299 298 299 300 302 303 306 310 314 315 316 319 321 317 309 300 292 281 267 253 238 226 216 209 204 197 186 174 168 174 183 188 188 177 160 146 137 133 130 131 133 136
291 285 278 276 279 282 286 291 298 303 304 305 306 307 308 309 308 307 307 307 307 305 304 304 304 302 300 298 296 295 296 297 298 300 304 308 311 315 319 321 316 306 296 287 275 261 246 232 221 213 206 199 192 182 172 168 174 185 190 186 173 157 142 132 128 126 125 125 125
285 280 277 279 283 287 292 298 303 304 305 305 307 309 311 312 311 310 309 309 309 308 306 305 304 304 302 298 294 292 292 293 293 295 298 303 307 312 318 319 311 301 291 282 270 256 241 228 218 210 203 198 190 181 174 172 176 181 183 178 167 153 142 131 125 120 117 116 114
280 278 278 282 286 291 297 302 304 304 304 306 309 311 313 314 314 313 312 313 313 312 310 307 306 306 304 301 296 291 288 288 289 291 294 298 303 309 315 315 306 297 287 278 265 252 239 227 216 208 202 196 189 183 180 181 183 183 179 172 162 153 143 135 127 120 114 110 109
279 279 280 283 287 292 297 300 301 302 304 307 310 312 314 315 315 316 317 318 317 316 313 311 309 308 306 303 298 290 284 283 285 287 290 294 300 306 311 311 302 292 282 272 261 250 238 227 216 207 199 193 187 184 183 185 185 182 176 169 161 153 145 139 134 127 120 115 112
281 280 281 283 286 289 292 294 297 300 303 307 310 313 315 316 318 320 321 322 321 319 317 316 313 311 308 305 300 291 283 278 280 283 287 292 298 305 309 308 297 285 275 267 258 248 238 228 217 206 197 191 186 183 183 183 181 176 171 166 160 153 147 143 139 134 129 123 120
282 280 280 281 282 283 285 289 293 297 302 306 311 314 317 319 321 323 324 324 324 324 323 321 319 316 312 308 302 294 283 275 276 280 286 291 298 304 307 302 291 280 270 264 257 248 239 228 216 205 197 191 186 182 179 177 173 169 166 162 158 152 148 144 140 136 132 128 124
281 279 279 280 280 280 281 284 290 296 302 306 311 315 318 320 323 325 326 326 327 327 327 327 325 323 319 313 306 297 284 272 272 278 286 292 298 303 302 295 285 276 268 262 254 246 238 228 217 207 198 191 184 178 172 167 164 161 159 157 155 151 147 143 139 135 132 129 125
279 279 280 283 284 282 281 283 289 295 301 307 312 316 319 322 324 326 328 328 328 329 329 329 329 328 325 320 313 303 290 276 271 276 285 290 297 300 295 287 279 273 266 258 249 240 233 224 217 209 200 191 182 172 164 159 157 156 154 153 153 151 148 144 140 137 134 130 127
278 279 282 287 288 285 282 283 288 294 301 308 313 317 320 323 326 327 327 327 327 328 329 330 332 332 330 326 320 312 302 291 282 281 285 289 294 292 287 279 274 269 262 248 232 224 219 216 212 206 199 189 181 173 164 157 155 153 151 150 150 151 149 147 143 140 137 134 131
276 279 284 290 290 286 283 282 286 294 303 310 314 318 321 325 325 325 325 326 327 328 329 332 335 336 335 331 325 319 311 303 293 286 284 286 287 285 280 274 270 263 245 216 199 194 197 202 202 196 188 183 178 173 168 160 154 151 148 146 146 147 147 146 144 142 139 137 135
275 279 284 287 288 285 281 280 285 294 304 311 314 319 324 326 323 321 322 325 327 329 330 333 336 337 336 332 326 321 316 308 296 284 278 278 279 277 275 270 263 241 201 177 174 174 178 185 187 183 179 178 177 174 168 161 154 148 143 141 141 141 142 141 141 140 139 138 137
274 277 281 284 284 281 278 278 285 295 304 309 314 319 324 324 321 319 320 324 328 330 331 332 334 335 334 329 324 318 313 309 299 286 276 273 271 270 269 262 239 198 170 164 164 164 165 170 175 174 173 174 177 173 165 157 150 144 139 136 134 134 133 133 134 135 135 135 133
273 275 278 280 279 276 274 277 284 294 301 306 311 317 322 322 318 317 319 324 327 330 331 331 333 335 334 329 320 314 310 307 300 290 278 271 265 263 257 240 200 172 162 160 158 155 155 160 166 169 170 174 176 170 159 149 143 138 133 129 128 126 125 123 123 121 121 121 123
270 272 274 276 274 273 272 276 284 292 298 303 308 314 318 319 317 317 319 322 327 330 331 333 336 337 336 330 323 317 312 306 299 291 281 272 263 253 231 202 175 163 156 153 149 146 147 152 160 166 171 175 174 165 151 140 133 127 124 122 121 120 117 112 108 104 102 103 106
267 269 270 271 271 271 272 276 283 290 295 299 304 310 315 317 316 316 317 321 326 330 333 336 339 340 339 334 334 336 332 317 302 292 284 275 255 217 189 174 161 153 147 142 139 138 138 143 150 160 167 171 166 154 138 125 118 116 116 119 119 116 111 105 99 95 93 94 98
263 264 267 269 270 270 272 276 282 288 292 295 298 305 312 314 313 313 315 320 326 331 335 337 341 342 340 335 342 0 17 19 354 307 265 200 168 161 156 149 143 139 136 132 129 128 130 134 143 153 160 161 155 142 127 114 108 111 118 122 121 116 108 102 96 91 89 90 92
260 261 265 267 268 269 271 275 281 285 288 290 293 300 309 312 310 310 313 320 326 331 334 336 337 339 339 336 348 21 44 59 75 94 110 122 130 132 131 129 126 125 123 121 120 121 124 128 135 144 151 151 144 133 122 112 110 115 122 125 121 114 107 102 97 94 90 87 84
258 260 264 267 267 267 269 274 279 283 285 286 290 299 307 310 308 309 312 318 324 329 332 334 336 343 355 10 30 49 59 67 78 89 101 109 114 115 115 114 113 112 112 112 114 116 117 118 119 128 138 142 137 129 121 116 116 121 124 122 116 110 104 101 98 95 91 86 81
258 260 263 265 266 266 268 272 277 280 281 284 289 298 305 307 305 306 310 315 321 325 329 332 339 359 34 56 64 67 70 75 80 86 92 99 104 105 105 105 104 102 102 103 107 108 104 94 88 95 120 136 135 129 124 121 122 124 124 119 113 107 103 100 97 95 91 85 80
256 257 260 262 264 265 267 271 274 277 279 283 289 296 301 302 302 302 306 312 316 319 320 326 341 25 59 73 77 77 77 79 81 84 87 91 95 98 100 100 98 97 96 97 98 94 82 70 65 70 101 133 136 132 129 127 127 126 123 118 113 109 106 103 101 98 94 88 84
253 253 255 258 261 264 266 269 272 273 276 281 287 292 296 297 297 299 302 307 312 314 313 316 341 44 70 81 83 79 75 74 78 81 84 86 89 93 96 96 96 95 96 96 92 81 68 61 60 68 94 126 134 136 136 135 133 129 124 120 116 112 110 107 105 103 99 96 91
249 248 250 253 257 260 263 266 268 270 273 278 284 288 291 291 292 295 299 303 306 308 308 310 345 58 72 74 74 71 68 66 69 75 81 86 90 92 94 94 96 98 99 98 94 82 71 66 66 76 102 121 131 142 148 147 139 132 127 123 120 116 113 111 109 107 105 102 98
244 243 245 248 251 254 259 262 265 268 270 274 279 283 285 287 289 292 294 297 298 299 297 297 319 58 60 57 57 61 64 66 66 70 78 88 94 95 94 93 96 98 101 99 94 85 78 73 71 80 109 127 135 149 158 158 146 137 130 127 124 120 117 114 112 110 108 105 101
Height
749 748 747 747 747 747 747 746 746 745 745 744 744 743 743 742 741 740 739 739 738 737 736 735 734 733 732 731 731 731 731 730 729 729 727 726 725 724 723 722 721 720 720 719 719 719 718 717 716 715 715 714 714 713 713 713 712 711 711 711 711 712 712 712 712 711 711 712 712
748 747 746 746 746 746 746 745 745 744 744 744 743 743 742 742 741 740 739 739 738 737 736 735 734 733 732 732 732 732 731 730 729 728 727 726 725 724 724 722 721 720 720 719 719 718 717 717 716 715 715 714 714 714 714 713 712 712 712 712 712 713 713 712 712 712 711 711 711
748 747 746 745 745 745 745 744 744 744 743 743 743 742 742 741 741 740 739 739 738 737 736 735 734 733 733 733 733 732 731 730 729 727 726 725 724 724 723 722 721 720 719 719 719 718 718 717 716 716 715 714 714 714 714 714 713 713 713 714 714 713 713 713 712 711 711 711 711
747 746 745 745 744 744 744 744 743 743 742 742 742 741 741 741 740 740 739 738 737 737 736 735 734 734 734 733 733 732 731 730 729 727 725 724 724 723 723 722 721 720 719 719 719 718 718 717 717 716 716 715 715 715 715 715 714 714 714 715 714 714 714 713 712 711 711 711 710
747 745 744 744 744 743 743 742 742 742 742 741 741 741 740 740 739 739 739 738 737 736 736 735 734 734 734 734 733 732 731 730 729 727 725 724 723 723 722 722 721 720 719 719 718 718 718 717 717 716 716 716 715 716 716 716 716 715 715 715 715 714 714 713 712 710 710 710 709
746 745 744 743 743 742 742 741 741 741 741 741 740 740 740 739 739 738 738 737 736 736 735 735 734 734 733 733 732 731 730 729 728 727 725 724 723 722 722 721 721 720 719 718 718 718 717 717 716 716 716 716 716 716 716 716 716 716 715 715 715 714 714 712 711 710 709 709 709
745 744 743 742 742 741 741 741 740 740 740 740 739 739 739 738 738 737 736 736 735 734 734 734 733 733 732 732 731 730 729 728 727 725 724 723 722 722 721 721 720 719 719 718 717 717 717 716 716 716 716 716 716 716 716 716 716 715 715 715 714 714 713 712 711 710 709 709 708
744 743 742 741 741 741 740 740 740 739 739 739 738 738 738 737 736 736 735 734 734 733 733 732 731 731 730 730 729 729 728 727 725 724 723 723 722 721 721 720 719 719 718 718 717 717 716 716 716 716 716 716 715 715 715 715 715 715 714 714 714 714 713 711 710 710 709 709 709
743 743 742 741 740 740 740 739 739 739 738 738 737 737 737 736 735 735 734 734 733 732 731 731 730 729 729 729 728 727 726 725 724 723 722 721 721 720 720 719 719 718 718 717 717 716 716 716 716 716 716 715 715 715 714 714 714 714 714 714 714 714 713 712 711 710 709 709 709
742 742 741 740 740 739 739 739 738 738 737 737 736 736 736 735 734 734 733 732 732 731 730 729 729 728 728 727 726 725 724 724 723 722 721 720 720 719 719 719 718 717 717 717 716 716 716 715 715 715 715 714 714 714 714 714 714 714 714 714 714 714 713 712 711 710 710 710 710
741 740 740 739 739 739 739 738 737 737 736 736 735 735 734 734 733 733 732 731 731 730 729 729 728 727 726 726 725 724 723 723 722 721 720 719 719 719 718 718 717 717 716 716 716 715 715 715 715 714 714 714 714 714 714 714 714 714 714 714 714 714 713 712 710 710 710 711 711
740 739 739 739 738 738 738 737 736 736 735 735 734 734 733 733 732 732 731 730 730 729 728 728 727 726 726 725 724 723 723 722 721 720 719 719 718 718 717 717 716 716 716 715 715 715 715 714 714 714 713 713 713 714 714 714 714 714 714 714 714 714 712 711 710 709 710 711 712
739 739 738 738 737 737 736 736 736 735 735 734 734 733 732 732 731 731 730 729 729 728 727 727 726 725 725 724 724 723 722 721 721 720 719 719 718 717 717 716 716 715 715 714 714 714 714 714 714 713 713 713 713 714 714 714 714 714 714 714 714 713 711 710 709 709 710 712 713
739 738 737 737 736 736 735 735 734 734 734 733 732 732 731 730 730 729 729 728 727 727 726 725 725 724 724 724 723 722 722 721 720 719 719 718 717 717 716 715 715 714 714 714 714 713 713 713 713 713 712 712 713 713 714 714 713 713 714 713 713 712 711 710 709 709 710 712 713
738 737 736 736 735 735 734 734 734 733 733 732 731 731 730 729 729 728 728 727 726 725 725 724 724 723 723 723 722 722 721 720 719 719 718 717 716 716 715 714 714 713 713 713 713 713 712 712 712 712 712 712 712 713 713 713 713 713 713 713 713 712 711 711 710 710 710 712 713
737 736 735 735 734 734 734 733 733 732 732 731 730 730 729 729 728 727 727 726 725 725 724 724 723 722 722 721 721 721 720 719 719 718 717 716 716 715 714 713 713 712 712 712 712 712 711 711 711 711 712 712 712 712 712 712 712 712 712 713 713 712 712 711 711 711 711 713 714
736 735 735 734 734 733 733 732 732 731 731 730 730 729 729 728 727 726 726 725 724 724 723 723 722 721 720 720 719 719 719 719 718 717 716 715 715 714 713 712 712 712 711 711 711 711 711 710 711 711 711 711 712 712 712 712 712 712 712 713 713 713 712 712 712 712 712 713 714
735 734 734 734 733 732 732 732 731 731 730 730 729 728 728 727 726 725 724 724 724 723 722 721 721 720 719 719 718 718 718 717 717 716 715 714 714 713 712 711 711 711 711 710 710 710 710 710 710 710 710 711 711 711 711 711 711 711 712 713 713 713 713 712 712 712 713 713 713
734 734 733 733 732 732 731 731 730 730 729 729 728 727 726 726 725 724 724 723 722 722 721 720 719 719 718 718 717 717 716 716 716 715 714 714 713 712 711 711 710 710 710 710 710 709 709 709 709 710 710 710 711 711 711 711 711 712 712 713 713 713 713 713 713 713 713 713 713
733 733 732 732 732 731 730 730 730 729 729 728 727 726 725 724 724 723 723 722 721 721 720 719 719 718 717 717 716 716 715 715 715 714 714 713 712 711 710 710 710 710 710 709 709 709 709 709 709 709 709 710 710 711 711 711 712 712 712 713 713 713 713 713 713 713 713 713 713
732 732 732 731 731 730 730 729 729 728 728 727 726 725 724 724 723 722 722 721 720 720 719 718 718 717 716 715 715 715 714 714 714 713 713 712 711 711 710 709 709 709 709 709 709 709 709 709 709 709 709 710 710 710 710 711 711 712 712 712 713 713 713 713 713 713 713 713 713
731 731 731 730 730 729 729 729 728 727 727 726 725 724 724 723 722 721 721 720 719 719 718 717 717 716 715 714 714 714 713 713 712 712 712 711 711 710 709 709 709 709 709 708 708 708 708 709 709 709 709 709 710 710 710 711 711 712 712 712 713 713 713 713 713 713 713 714 714
730 730 730 729 729 729 728 728 727 726 726 725 724 724 723 722 721 720 720 719 719 718 717 716 716 715 714 714 713 713 712 712 711 711 711 710 710 709 709 709 708 708 708 708 708 708 708 708 709 709 709 709 709 709 710 710 711 711 712 712 712 713 713 713 713 713 714 714 714
730 729 729 729 728 728 727 727 726 725 725 724 723 723 722 721 720 719 719 718 718 717 716 715 714 714 713 713 712 712 711 711 710 710 709 709 709 709 708 708 708 708 707 707 708 708 708 708 708 709 709 709 709 709 710 710 711 711 712 712 712 713 713 713 713 714 714 714 715
729 729 728 728 727 727 726 726 725 724 724 723 723 722 721 720 719 719 718 717 717 716 715 714 714 713 712 712 711 711 710 710 709 709 709 709 708 708 708 707 707 707 707 707 707 707 708 708 708 709 709 709 709 710 710 711 711 711 712 712 713 713 713 714 714 714 715 715 716
728 727 727 727 726 726 725 725 724 724 723 722 722 721 720 719 719 718 717 716 716 715 714 714 713 712 711 711 710 709 709 709 709 708 708 708 708 707 707 707 707 706 707 707 707 707 707 708 708 708 709 709 709 710 710 711 711 712 712 712 713 713 714 714 715 715 716 716 716
727 726 726 726 725 725 724 724 724 723 722 722 721 720 719 719 718 718 717 716 715 714 714 713 712 711 710 710 709 709 708 708 708 708 707 707 707 707 707 706 706 706 706 707 707 707 707 708 708 708 709 709 709 710 710 711 711 712 712 713 713 714 714 714 715 715 716 716 716
726 725 725 725 724 724 724 723 723 722 722 721 720 719 719 718 718 717 716 715 714 714 713 712 711 710 709 709 709 708 708 707 707 707 707 707 706 706 706 706 706 706 706 707 707 707 707 707 708 708 709 709 709 710 710 711 711 712 712 713 713 714 714 714 715 715 716 716 716
725 724 724 724 723 723 723 722 722 721 721 720 719 719 718 718 717 717 716 715 714 713 712 711 710 709 709 708 708 707 707 707 707 706 706 706 706 706 706 705 705 706 706 707 707 707 707 707 708 708 709 709 709 710 711 711 711 712 712 713 713 714 714 715 715 715 716 716 716
724 723 723 723 722 722 722 721 721 721 720 719 719 718 718 717 717 716 715 714 714 713 712 711 710 709 709 708 708 707 706 706 706 706 706 706 705 705 705 705 705 706 707 707 707 707 707 707 708 708 709 709 710 710 711 711 711 712 712 713 714 714 714 715 715 716 716 716 717
723 722 722 722 721 721 721 720 720 720 719 719 718 718 717 717 716 716 715 714 714 713 712 711 710 709 708 708 707 707 706 706 706 705 705 705 705 705 705 705 706 706 707 707 707 707 707 708 708 708 709 709 710 711 711 711 712 712 713 713 714 714 715 715 716 716 717 717 717
721 721 721 720 720 720 720 719 719 719 719 718 718 717 717 716 716 716 715 714 713 713 712 711 710 709 708 708 707 707 706 706 705 705 705 705 705 705 705 705 706 706 707 707 707 707 708 708 708 708 709 710 711 711 711 711 712 712 713 713 714 715 715 716 716 717 717 718 718
720 720 720 719 719 719 719 719 719 718 718 717 717 717 716 716 716 715 714 714 713 713 712 711 710 709 709 708 708 707 706 706 705 705 704 704 704 705 705 706 706 707 707 707 707 708 708 708 708 709 709 710 711 711 711 711 712 712 713 714 715 715 716 716 717 717 718 718 719
719 719 718 718 718 718 718 718 718 717 717 717 716 716 716 716 715 715 714 714 713 713 712 711 710 709 709 709 708 707 707 706 705 705 705 704 705 705 706 706 707 707 707 708 708 708 708 709 709 709 710 711 711 711 711 711 712 713 714 715 715 716 716 716 717 717 718 719 719
717 717 717 717 717 717 717 717 717 717 716 716 716 715 715 715 715 715 714 714 713 713 712 711 710 710 709 709 709 708 707 706 706 705 705 705 705 706 706 707 708 708 708 708 708 709 709 709 710 710 711 711 711 711 711 711 712 714 714 715 716 716 717 717 717 718 719 719 720
716 716 716 716 716 716 716 716 716 716 715 715 715 715 715 715 715 714 714 714 713 713 712 711 711 710 710 709 709 708 708 707 706 706 705 705 706 706 707 708 708 709 709 709 709 709 710 710 710 711 711 711 711 711 712 712 713 714 715 716 717 717 717 717 718 718 719 720 720
714 715 715 715 715 715 715 715 715 715 715 714 714 714 714 714 714 714 714 714 713 713 712 712 711 711 710 710 709 709 709 708 707 707 707 707 707 708 708 709 709 709 709 710 710 710 710 710 710 711 711 711 712 712 712 713 714 715 716 717 717 717 718 718 718 719 719 720 721
714 714 714 714 714 714 714 714 714 714 714 714 714 714 714 714 714 714 714 714 713 713 712 712 711 711 711 710 710 710 709 709 709 708 708 708 709 709 709 709 709 709 710 711 711 711 711 710 711 711 712 712 712 712 713 713 714 715 716 717 718 718 718 719 719 719 720 721 722
713 713 713 713 713 713 713 714 713 713 713 713 713 713 714 714 714 714 714 713 713 713 712 712 712 711 711 711 711 710 710 710 710 709 709 709 710 710 710 710 710 711 712 712 712 712 711 711 711 712 712 712 713 713 714 714 715 716 717 718 718 718 719 719 719 720 721 722 722
711 712 712 712 712 712 712 713 713 712 712 713 713 713 713 713 714 714 713 713 713 713 713 712 712 712 711 711 711 711 711 711 711 711 711 711 711 712 711 711 711 712 713 713 713 712 712 712 712 713 713 713 713 714 714 715 716 717 717 718 718 719 719 719 720 721 721 722 723
710 710 711 711 711 711 711 712 712 712 712 712 712 712 713 713 713 713 713 713 713 713 713 712 712 712 712 712 711 711 712 712 712 712 712 712 712 712 712 712 712 713 713 714 713 713 712 713 713 713 714 714 714 715 715 716 717 717 718 718 718 719 719 720 721 721 722 723 723